Simultaneous Nadir Overpasses (SNOs) Predictions

Prediction of SNOs between AQUA and NPP Satellite Orbit:

Table of predicted SNOs for the next 14.0 days since TLE Epoch: 4/8/2016
Index Date (AQUA) Time (AQUA) Lat,Lon (AQUA) SZA (AQUA ) Date (NPP) Time (NPP) Lat,Lon (NPP) SZA (NPP ) Distance(km) Time Diff (sec)
1 04/08/2016 21:50:15 74.11, 86.64 91.93 04/08/2016 21:49:20 74.11, 86.62 91.99 0.74 55
2 04/08/2016 22:39:17 -75.42,-102.40 89.54 04/08/2016 22:39:39 -75.41,-102.47 89.55 2.14 22
3 04/11/2016 14:06:36 74.61,-156.31 90.38 04/11/2016 14:06:06 74.60,-156.34 90.42 1.02 30
4 04/11/2016 14:55:40 -75.81, 14.57 90.98 04/11/2016 14:56:27 -75.80, 14.49 91.00 2.30 47
5 04/14/2016 05:40:24 -51.80, 129.35 67.99 04/14/2016 05:39:12 -52.00, 128.00 67.56 94.81 72
6 04/14/2016 06:22:54 75.19, -38.95 88.76 04/14/2016 06:22:49 75.19, -38.94 88.76 0.21 5
7 04/14/2016 07:12:01 -76.22, 131.71 92.44 04/14/2016 07:13:13 -76.21, 131.68 92.49 0.94 72
8 04/16/2016 21:50:14 -74.43, -92.65 91.35 04/16/2016 21:49:17 -74.43, -92.58 91.32 2.25 57
9 04/16/2016 22:39:21 75.34, 77.35 87.62 04/16/2016 22:39:42 75.33, 77.26 87.63 2.85 21
10 04/19/2016 14:06:38 -74.72, 23.95 92.62 04/19/2016 14:06:07 -74.73, 23.96 92.60 0.27 31
11 04/19/2016 14:55:36 76.08,-164.62 85.84 04/19/2016 14:56:22 76.08,-164.57 85.79 1.41 46
12 04/22/2016 05:40:15 52.33, -50.42 108.78 04/22/2016 05:39:03 52.54, -51.74 109.18 93.01 72
13 04/22/2016 06:22:59 -75.16, 140.95 94.02 04/22/2016 06:22:54 -75.15, 140.94 94.01 0.23 5




NCC Satellite Simultaneous Nadir Overpasses (SNOs) Prediction Service
